STARLINK-11506, 62466

Orbit data source: Space-Track

STARLINK-11506, 62466 is a payload satellite owned by SpaceX/Seattle (US) in LEO that was launched on Tue, 31 Dec 2024 UTC via an FALCON 9 launch vehicle from the Air Force Eastern Test Range (AFETR). Payload-class satellites include a variety of spacecraft equipped with specific instruments for various scientific and technological missions. These include communications satellites like Starlink; space stations such as the ISS; scientific satellites like the Hubble; Earth observation satellites from companies like Planet Labs, Umbra, and HawkEye 360; GPS; miniature CubeSats for education and research; and military/defense satellites.

Loading next visibility...
Identifier
62466, 2024-254E
Orbit
LEO
Country
Flag of USUS
Related business
Manufacturer
SpaceX/Seattle
Mission
Operational Commercial Communications
Bus & Motor
STARLINK V2MD, Unknown motor
Mass
960 kg wet, ~910 kg dry
Launch date (UTC)
2024-12-31 (11 months ago)
Launch vehicle
FALCON 9
Launch site
Air Force Eastern Test Range (AFETR)
Object type
Payload
Rocket body
Debris
Shape & HBR
Box + 2 Pan, 18.1 m
Radar Cross Section
36.964 m², Large (>1 m²)

Expand to show TLE details & history
Last TLE update: 10 hours ago

TLE from 10 hours ago
0 STARLINK-11506
1 62466U 24254E   25343.20083750  .00233206  00000-0  17675-2 0  9997
2 62466  43.0001  48.0661 0001710 272.6101  87.4571 15.70878415 55016
Epoch: 2025-12-09T04:49Z
TLE epoch observation values (Epoch: 2025-12-09T04:49:12.359Z)
Latitude
-0.00003°
Longitude
-102.42436°
Altitude
356.106 km
Speed
7.697 km/s
True Right ascension
03h 12m 15s
True Declination
0° 00' 00"
Sunlit
Object was in full shadow at epoch
Visualization orbit readout
Latitude
Unknown
Longitude
Unknown
Altitude
Unknown
Speed
Unknown
Apparent Right ascension
Unknown
Apparent Declination
Unknown
Sunlit
N/A
Visualization observer readout
Local Sidereal Time
12:47:40
Azimuth
Unknown
Elevation
Unknown
Doppler factor
Unknown
Orbital elements
Apogee altitude
359.519 km
Perigee altitude
357.215 km
Semi-major axis
6,736.504 km
Eccentricity
0.00017
Inclination
43.0001°
RAAN
48.0661°
Arg. of periapsis
272.6101°
True anomaly
87.47668°
Mean anomaly
87.4571°
Eccentric anomaly
87.46689°
Mean motion
3.92547 °/min
Orbital period
91.71 mins
BSTAR
0.0017675
Loading maneuver chart data...
Computing Atmospheric mass density...
Loading historical data...
Loading historical data...
Loading historical data...
Loading historical data...
Loading historical data...
Loading historical data...
Loading historical data...

Documentation

Showing up to 5 results
|